CW4086 Weather Reports


time (UTC)temp
F
wind
direction
speed
knots
gust
knots
rain 1hr
in
rain 24hr
in
rain mn
in
humidity
%
barometer
mb
20260510131604 61 65 0.0 0.9 0.00 0.00 0.00 44 1011.7
20260510131104 61 64 0.0 0.0 0.00 0.00 0.00 43 1011.5
20260510130605 61 64 0.0 0.0 0.00 0.00 0.00 43 1011.4
20260510130104 61 64 0.0 0.0 0.00 0.00 0.00 41 1011.3
20260510125604 61 65 0.0 0.9 0.00 0.00 0.00 40 1011.4
20260510124604 61 64 0.0 0.9 0.00 0.00 0.00 39 1011.3
20260510124104 61 61 0.0 0.9 0.00 0.00 0.00 41 1011.3
20260510123604 60 63 0.0 0.9 0.00 0.00 0.00 43 1011.3
20260510122604 60 63 0.0 0.0 0.00 0.00 0.00 46 1011.3
20260510122106 60 63 0.0 0.0 0.00 0.00 0.00 45 1011.3
20260510121104 61 63 0.0 0.9 0.00 0.00 0.00 45 1011.4
20260510120604 60 63 0.0 0.9 0.00 0.00 0.00 46 1011.3
20260510120104 60 63 0.0 0.9 0.00 0.00 0.00 45 1011.3
20260510115604 60 63 0.0 0.9 0.00 0.00 0.00 46 1011.3
20260510115104 60 63 0.0 0.9 0.00 0.00 0.00 46 1011.4
20260510114604 60 63 0.0 0.0 0.00 0.00 0.00 47 1011.4
20260510114104 60 63 0.0 0.0 0.00 0.00 0.00 45 1011.3
20260510113604 60 63 0.0 0.9 0.00 0.00 0.00 48 1011.4
20260510113104 61 63 0.0 0.9 0.00 0.00 0.00 49 1011.4
20260510112604 61 63 0.0 0.9 0.00 0.00 0.00 47 1011.5
20260510112107 61 63 0.0 1.7 0.00 0.00 0.00 46 1011.4
20260510111604 61 63 0.9 1.7 0.00 0.00 0.00 45 1011.4
20260510111104 61 41 0.0 0.9 0.00 0.00 0.00 50 1011.5
20260510110604 61 40 0.0 0.9 0.00 0.00 0.00 50 1011.6
20260510110104 61 40 0.0 1.7 0.00 0.00 0.00 51 1011.7
20260510105604 60 40 0.0 1.7 0.00 0.00 0.00 51 1011.8
20260510105105 61 34 0.0 0.9 0.00 0.00 0.00 51 1011.7
20260510104604 61 34 0.0 0.9 0.00 0.00 0.00 50 1011.7
20260510104105 62 33 0.0 1.7 0.00 0.00 0.00 48 1011.7
20260510103604 62 33 0.9 1.7 0.00 0.00 0.00 46 1011.7
20260510102604 62 22 0.0 0.9 0.00 0.00 0.00 46 1011.7
20260510102106 62 22 0.0 0.0 0.00 0.00 0.00 47 1011.7
20260510101604 62 22 0.0 0.9 0.00 0.00 0.00 50 1011.7
20260510101104 62 22 0.0 0.9 0.00 0.00 0.00 50 1011.7
20260510100604 62 22 0.0 0.9 0.00 0.00 0.00 49 1011.7
20260510100104 62 22 0.0 0.0 0.00 0.00 0.00 49 1011.9
20260510095604 62 22 0.0 0.9 0.00 0.00 0.00 48 1011.9
20260510095104 62 22 0.0 0.9 0.00 0.00 0.00 48 1011.9
20260510094604 62 22 0.0 0.9 0.00 0.00 0.00 49 1011.9
20260510094104 61 22 0.0 0.9 0.00 0.00 0.00 51 1011.8
20260510093604 61 22 0.0 0.9 0.00 0.00 0.00 51 1011.9
20260510093104 61 22 0.0 0.9 0.00 0.00 0.00 50 1011.9
20260510092604 62 22 0.0 0.9 0.00 0.00 0.00 50 1011.9
20260510092104 61 22 0.0 0.9 0.00 0.00 0.00 50 1011.9
20260510091604 62 22 0.0 0.9 0.00 0.00 0.00 51 1011.9
20260510091104 62 22 0.0 0.9 0.00 0.00 0.00 51 1012.0
20260510084604 62 21 0.0 0.9 0.00 0.00 0.00 49 1012.0
20260510084104 62 21 0.0 0.9 0.00 0.00 0.00 49 1012.1
20260510083604 62 20 0.0 0.9 0.00 0.00 0.00 50 1012.1
20260510083106 62 19 0.0 0.9 0.00 0.00 0.00 50 1012.2
20260510082604 63 19 0.0 0.9 0.00 0.00 0.00 50 1012.3
20260510082107 63 19 0.0 0.9 0.00 0.00 0.00 49 1012.4
20260510081104 63 19 0.0 0.9 0.00 0.00 0.00 49 1012.4
20260510080105 63 19 0.0 0.9 0.00 0.00 0.00 49 1012.4
20260510075604 63 19 0.0 0.9 0.00 0.00 0.00 49 1012.5
20260510074605 63 19 0.0 0.9 0.00 0.00 0.00 49 1012.5
20260510074104 63 19 0.0 0.9 0.00 0.00 0.00 49 1012.6
20260510073604 63 19 0.0 0.9 0.00 0.00 0.00 49 1012.6
20260510073104 63 18 0.0 0.9 0.00 0.00 0.00 48 1012.8
20260510072107 63 18 0.0 0.9 0.00 0.00 0.00 48 1012.8
20260510071605 63 18 0.0 0.9 0.00 0.00 0.00 48 1012.9
20260510071105 63 18 0.0 0.9 0.00 0.00 0.00 48 1012.9
20260510070604 63 16 0.0 0.9 0.00 0.00 0.00 48 1012.9
20260510070104 63 16 0.0 0.9 0.00 0.00 0.00 48 1012.9
20260510065604 63 16 0.0 0.9 0.00 0.00 0.00 47 1013.0
20260510065104 63 15 0.0 0.9 0.00 0.00 0.00 47 1013.0
20260510064605 63 15 0.0 0.9 0.00 0.00 0.00 47 1013.0
20260510063604 64 15 0.0 0.9 0.00 0.00 0.00 47 1013.0
20260510063104 64 15 0.0 0.9 0.00 0.00 0.00 47 1012.9
20260510062604 64 15 0.0 0.9 0.00 0.00 0.00 47 1012.9
20260510061103 64 14 0.0 0.9 0.00 0.00 0.00 47 1013.0
20260510060104 65 14 0.0 0.9 0.00 0.00 0.00 47 1013.0
20260510055604 65 14 0.0 0.9 0.00 0.00 0.00 46 1013.0
20260510055104 65 14 0.0 0.9 0.00 0.00 0.00 46 1013.0
20260510054604 66 14 0.0 0.9 0.00 0.00 0.00 45 1012.9
20260510054104 66 14 0.0 0.0 0.00 0.00 0.00 45 1012.9
20260510053604 67 14 0.0 0.0 0.00 0.00 0.00 44 1012.8
20260510053104 67 14 0.0 0.9 0.00 0.00 0.00 43 1012.8
20260510052106 68 14 0.0 1.7 0.00 0.00 0.00 42 1012.8
20260510051604 68 8 0.0 0.9 0.00 0.00 0.00 41 1012.9
20260510051104 68 0 0.0 0.9 0.00 0.00 0.00 40 1012.9
20260510050604 68 0 0.0 0.9 0.00 0.00 0.00 39 1012.8
20260510050104 68 0 0.0 0.9 0.00 0.00 0.00 40 1012.9
20260510045604 68 0 0.9 0.9 0.00 0.00 0.00 39 1012.8
20260510045104 69 355 0.0 0.9 0.00 0.00 0.00 39 1012.9
20260510044104 69 355 0.0 0.9 0.00 0.00 0.00 39 1012.7
20260510043604 70 355 0.0 0.9 0.00 0.00 0.00 37 1012.7
20260510042604 70 350 0.9 1.7 0.00 0.00 0.00 36 1012.7
20260510042105 70 322 0.9 0.9 0.00 0.00 0.00 35 1012.6
20260510041604 71 310 0.0 0.9 0.00 0.00 0.00 35 1012.5
20260510041104 71 302 0.0 0.0 0.00 0.00 0.00 34 1012.5
20260510040605 71 302 0.0 0.9 0.00 0.00 0.00 34 1012.4
20260510035606 71 302 0.0 0.9 0.00 0.00 0.00 34 1012.4
20260510035103 71 300 0.0 0.9 0.00 0.00 0.00 34 1012.3
20260510034604 71 299 0.0 0.9 0.00 0.00 0.00 37 1012.3
20260510034104 71 299 0.0 0.0 0.00 0.00 0.00 37 1012.3
20260510033604 72 299 0.0 0.0 0.00 0.00 0.00 37 1012.3
20260510032604 72 299 0.0 1.7 0.00 0.00 0.00 36 1012.2
20260510032104 72 299 0.0 1.7 0.00 0.00 0.00 35 1012.2
20260510031106 73 308 0.9 2.6 0.00 0.00 0.00 35 1011.9
20260510030604 73 310 0.9 2.6 0.00 0.00 0.00 34 1011.8
20260510025604 73 316 1.7 5.2 0.00 0.00 0.00 35 1011.7
20260510025104 74 322 1.7 5.2 0.00 0.00 0.00 35 1011.7
20260510024604 74 313 2.6 5.2 0.00 0.00 0.00 34 1011.7
20260510023604 75 306 2.6 5.2 0.00 0.00 0.00 33 1011.6
20260510023105 76 305 2.6 5.2 0.00 0.00 0.00 33 1011.6
20260510022605 76 299 2.6 5.2 0.00 0.00 0.00 33 1011.6
20260510022106 77 293 3.5 5.2 0.00 0.00 0.00 32 1011.6
20260510021604 78 305 3.5 5.2 0.00 0.00 0.00 32 1011.5
20260510021104 78 305 2.6 5.2 0.00 0.00 0.00 32 1011.4
20260510020605 78 289 2.6 5.2 0.00 0.00 0.00 32 1011.3
20260510020104 79 297 3.5 6.1 0.00 0.00 0.00 32 1011.3
20260510015604 79 316 4.3 7.0 0.00 0.00 0.00 31 1011.2
20260510015104 79 283 4.3 7.0 0.00 0.00 0.00 32 1011.2
20260510014604 80 289 4.3 6.1 0.00 0.00 0.00 31 1011.1
20260510014104 81 297 4.3 6.1 0.00 0.00 0.00 31 1011.1
20260510013104 81 290 4.3 7.0 0.00 0.00 0.00 31 1011.1
20260510012604 82 304 4.3 7.0 0.00 0.00 0.00 31 1011.1
20260510011603 83 284 5.2 7.0 0.00 0.00 0.00 30 1010.9
20260510011104 83 277 3.5 7.0 0.00 0.00 0.00 30 1010.9
20260510010604 83 267 3.5 7.8 0.00 0.00 0.00 29 1010.8
20260510010105 83 293 5.2 8.7 0.00 0.00 0.00 29 1010.8
20260510004604 84 267 4.3 7.8 0.00 0.00 0.00 28 1010.6
20260510004105 85 267 5.2 7.8 0.00 0.00 0.00 28 1010.6
20260510003605 85 274 4.3 7.8 0.00 0.00 0.00 27 1010.6
20260510003106 85 267 6.1 7.8 0.00 0.00 0.00 27 1010.6
20260510002604 85 254 4.3 10.4 0.00 0.00 0.00 28 1010.6
20260510002106 86 282 5.2 10.4 0.00 0.00 0.00 26 1010.6
20260510001604 86 271 5.2 10.4 0.00 0.00 0.00 27 1010.6
20260510001105 87 320 5.2 10.4 0.00 0.00 0.00 25 1010.6
20260510000104 87 290 5.2 10.4 0.00 0.00 0.00 24 1010.6
20260509235604 87 275 3.5 8.7 0.00 0.00 0.00 24 1010.5
20260509235104 87 263 4.3 7.8 0.00 0.00 0.00 24 1010.5
20260509234104 87 265 4.3 10.4 0.00 0.00 0.00 24 1010.5
20260509233604 87 279 5.2 7.8 0.00 0.00 0.00 25 1010.4
20260509232604 88 308 6.1 8.7 0.00 0.00 0.00 26 1010.5
20260509231104 88 283 5.2 10.4 0.00 0.00 0.00 24 1010.6
20260509230604 89 269 6.1 10.4 0.00 0.00 0.00 24 1010.6
20260509230104 89 281 4.3 7.0 0.00 0.00 0.00 23 1010.5
20260509225604 89 292 4.3 7.8 0.00 0.00 0.00 23 1010.6
20260509225104 89 267 3.5 7.8 0.00 0.00 0.00 23 1010.6
20260509224604 89 267 4.3 7.0 0.00 0.00 0.00 22 1010.6
20260509224104 89 240 2.6 8.7 0.00 0.00 0.00 20 1010.6
20260509223104 89 308 5.2 8.7 0.00 0.00 0.00 20 1010.6
20260509222605 89 307 2.6 7.8 0.00 0.00 0.00 19 1010.7
20260509221604 89 5 0.0 7.0 0.00 0.00 0.00 21 1010.9
20260509221104 89 210 2.6 7.0 0.00 0.00 0.00 18 1011.1
20260509220604 90 275 0.9 7.0 0.00 0.00 0.00 19 1011.1
20260509220104 90 300 2.6 5.2 0.00 0.00 0.00 20 1011.2
20260509215604 90 291 0.9 4.3 0.00 0.00 0.00 20 1011.1
20260509215104 89 315 1.7 4.3 0.00 0.00 0.00 18 1011.2
20260509214605 89 263 1.7 6.1 0.00 0.00 0.00 19 1011.2
20260509214104 88 266 0.9 6.1 0.00 0.00 0.00 20 1011.2
20260509213604 88 291 2.6 7.0 0.00 0.00 0.00 20 1011.3
20260509213104 87 265 3.5 7.0 0.00 0.00 0.00 22 1011.4
20260509212107 87 268 2.6 8.7 0.00 0.00 0.00 22 1011.6
20260509211604 87 273 5.2 8.7 0.00 0.00 0.00 23 1011.7
20260509210604 87 304 2.6 7.0 0.00 0.00 0.00 23 1011.7
20260509210105 87 299 2.6 7.0 0.00 0.00 0.00 24 1011.7
20260509205604 86 295 4.3 7.8 0.00 0.00 0.00 24 1011.7
20260509205104 87 275 3.5 7.8 0.00 0.00 0.00 24 1011.7
20260509204604 87 314 4.3 7.8 0.00 0.00 0.00 23 1011.7
20260509204104 87 299 4.3 7.0 0.00 0.00 0.00 23 1011.8
20260509203604 86 288 1.7 7.0 0.00 0.00 0.00 25 1011.8
20260509203104 86 305 5.2 7.0 0.00 0.00 0.00 24 1011.9
20260509202604 86 311 3.5 6.1 0.00 0.00 0.00 23 1011.9
20260509202106 85 263 4.3 7.8 0.00 0.00 0.00 24 1011.9
20260509201606 85 298 3.5 7.8 0.00 0.00 0.00 24 1012.0
20260509201104 85 299 2.6 5.2 0.00 0.00 0.00 25 1012.0
20260509200604 85 253 4.3 6.1 0.00 0.00 0.00 24 1012.0
20260509200104 85 252 4.3 7.0 0.00 0.00 0.00 26 1012.0
20260509195604 85 277 5.2 8.7 0.00 0.00 0.00 27 1012.1
20260509195104 84 286 2.6 8.7 0.00 0.00 0.00 26 1012.0
20260509194604 84 309 4.3 7.0 0.00 0.00 0.00 26 1012.2
20260509194104 84 260 4.3 7.0 0.00 0.00 0.00 26 1012.2
20260509193103 84 263 3.5 7.0 0.00 0.00 0.00 25 1012.2
20260509192604 84 297 4.3 7.0 0.00 0.00 0.00 26 1012.3
20260509192105 83 302 3.5 6.1 0.00 0.00 0.00 27 1012.3
20260509191604 82 261 2.6 7.0 0.00 0.00 0.00 27 1012.3
20260509190604 82 305 4.3 7.0 0.00 0.00 0.00 28 1012.3
20260509185604 82 315 4.3 7.0 0.00 0.00 0.00 29 1012.3
20260509185104 81 306 3.5 7.8 0.00 0.00 0.00 30 1012.4
20260509184604 81 277 3.5 7.8 0.00 0.00 0.00 31 1012.4
20260509184106 81 307 3.5 7.8 0.00 0.00 0.00 32 1012.3
20260509183604 80 246 4.3 7.8 0.00 0.00 0.00 31 1012.4
20260509183104 80 325 2.6 7.8 0.00 0.00 0.00 32 1012.4
20260509182105 79 270 4.3 6.1 0.00 0.00 0.00 32 1012.5
20260509181606 79 293 3.5 6.1 0.00 0.00 0.00 35 1012.6
20260509180604 78 280 1.7 6.1 0.00 0.00 0.00 35 1012.7
20260509180103 78 298 3.5 6.1 0.00 0.00 0.00 36 1012.7
20260509175603 77 282 2.6 6.1 0.00 0.00 0.00 37 1012.7
20260509175104 77 287 4.3 6.1 0.00 0.00 0.00 37 1012.7
20260509174604 76 266 2.6 6.1 0.00 0.00 0.00 38 1012.7
20260509174104 76 268 2.6 6.1 0.00 0.00 0.00 39 1012.8
20260509173104 76 263 3.5 7.0 0.00 0.00 0.00 40 1012.8
20260509172603 75 252 2.6 4.3 0.00 0.00 0.00 43 1012.7
20260509172105 75 307 2.6 5.2 0.00 0.00 0.00 44 1012.7
20260509171603 74 288 2.6 5.2 0.00 0.00 0.00 44 1012.6
20260509171104 74 299 1.7 4.3 0.00 0.00 0.00 45 1012.7
20260509170604 74 276 1.7 4.3 0.00 0.00 0.00 45 1012.7
20260509170104 73 287 2.6 4.3 0.00 0.00 0.00 46 1012.7
20260509165604 72 283 1.7 5.2 0.00 0.00 0.00 47 1012.7
20260509165104 72 281 2.6 5.2 0.00 0.00 0.00 46 1012.8
20260509164604 72 294 2.6 4.3 0.00 0.00 0.00 45 1012.8
20260509164104 71 292 1.7 4.3 0.00 0.00 0.00 46 1012.8
20260509163604 71 290 1.7 4.3 0.00 0.00 0.00 42 1012.9
20260509162605 69 307 1.7 2.6 0.00 0.00 0.00 44 1012.7
20260509162104 69 307 0.9 2.6 0.00 0.00 0.00 45 1012.7
20260509161606 68 307 0.9 2.6 0.00 0.00 0.00 47 1012.8
20260509161103 67 307 0.9 2.6 0.00 0.00 0.00 47 1012.8
20260509160604 67 307 1.7 2.6 0.00 0.00 0.00 50 1012.9
20260509155604 66 307 0.9 2.6 0.00 0.00 0.00 55 1012.8
20260509155104 65 307 1.7 2.6 0.00 0.00 0.00 57 1012.9
20260509154604 65 28 1.7 2.6 0.00 0.00 0.00 58 1012.9
20260509154104 65 57 1.7 2.6 0.00 0.00 0.00 59 1012.9
20260509153604 64 57 0.9 2.6 0.00 0.00 0.00 59 1013.0
20260509153104 64 60 1.7 2.6 0.00 0.00 0.00 60 1013.0
20260509152604 64 67 1.7 2.6 0.00 0.00 0.00 62 1013.0
20260509152104 63 68 0.9 1.7 0.00 0.00 0.00 62 1013.0
20260509151607 63 68 0.9 2.6 0.00 0.00 0.00 63 1013.0
20260509151104 63 68 1.7 2.6 0.00 0.00 0.00 64 1013.0
20260509150604 62 68 0.0 2.6 0.00 0.00 0.00 65 1013.0
20260509145103 63 68 0.9 1.7 0.00 0.00 0.00 64 1013.0
20260509144604 63 68 0.0 0.9 0.00 0.00 0.00 66 1013.0
20260509144104 62 68 0.0 0.9 0.00 0.00 0.00 64 1013.0
20260509143104 62 68 0.0 0.9 0.00 0.00 0.00 62 1013.0
20260509142604 62 68 0.0 0.9 0.00 0.00 0.00 61 1013.0
20260509142106 62 68 0.0 0.0 0.00 0.00 0.00 61 1012.9
20260509141604 61 68 0.0 0.0 0.00 0.00 0.00 59 1012.8
20260509141104 61 68 0.0 0.9 0.00 0.00 0.00 58 1012.7
20260509140605 60 68 0.0 0.9 0.00 0.00 0.00 56 1012.7
20260509140104 60 68 0.0 0.9 0.00 0.00 0.00 54 1012.8
20260509135604 59 68 0.0 0.9 0.00 0.00 0.00 54 1012.8
20260509135104 58 67 0.0 0.9 0.00 0.00 0.00 53 1012.8
20260509134605 58 69 0.0 0.9 0.00 0.00 0.00 52 1012.8
20260509134103 58 69 0.0 0.9 0.00 0.00 0.00 52 1012.8
20260509133605 58 69 0.0 0.9 0.00 0.00 0.00 50 1012.8
20260509133104 58 68 0.0 0.9 0.00 0.00 0.00 48 1012.8
20260509132604 58 68 0.0 1.7 0.00 0.00 0.00 48 1012.7